Temperature
18 18 18 18 19 19 19 19 20 20 20 20 20 19 19 18 18 18 19 19 19 19 18 17 17 17 17 18 18 18 17 17 17 17 18 19 19 19 19 19 19 19 19
18 18 18 18 18 18 18 18 19 19 19 20 21 21 20 20 19 18 19 19 20 19 19 18 17 17 17 17 17 17 17 17 17 17 18 19 20 20 19 19 18 18 19
19 19 19 18 18 18 17 17 17 17 18 19 19 20 19 19 19 18 18 19 19 19 18 17 16 16 16 17 17 17 16 17 16 16 16 17 19 19 19 19 18 18 18
20 20 20 19 19 18 18 17 17 17 17 17 17 18 18 18 19 18 18 18 18 17 16 16 15 15 16 16 16 16 16 16 16 16 15 15 16 15 17 18 18 18 17
20 20 20 19 19 19 18 18 17 17 17 17 17 17 17 17 17 16 17 17 16 15 15 15 15 15 15 15 16 16 16 16 15 16 15 15 15 15 15 16 17 17 17
20 20 19 19 18 18 18 17 17 16 16 16 16 16 16 16 15 15 15 15 15 14 14 14 14 14 15 15 15 15 15 15 15 15 15 15 15 15 15 15 16 16 17
20 19 19 18 17 17 17 16 16 16 15 15 15 15 15 15 15 15 14 14 14 14 14 14 14 15 15 15 15 15 15 15 15 15 15 15 15 15 15 15 15 16 17
20 19 18 17 16 16 16 16 15 15 15 14 14 15 15 15 14 14 14 14 14 14 14 14 14 15 15 15 15 15 15 15 15 14 15 15 15 15 15 15 15 16 17
20 19 18 17 16 15 15 15 15 15 14 14 14 14 14 14 14 14 14 13 14 14 14 14 14 14 14 14 14 14 14 14 14 14 14 14 14 14 14 14 14 15 16
20 19 17 16 15 14 14 14 14 14 14 14 14 13 13 13 13 13 13 13 13 13 13 13 13 13 13 13 13 13 14 14 14 14 14 14 14 14 14 14 14 14 15
19 18 17 16 15 14 13 13 13 13 13 13 13 12 12 12 12 12 12 12 13 13 13 12 12 12 12 12 12 13 13 13 13 13 13 13 13 13 14 14 14 14 14
18 17 16 15 14 14 13 13 13 13 13 12 12 11 11 11 11 11 12 12 12 12 12 12 12 12 12 12 12 12 12 12 12 12 12 12 12 12 12 13 13 13 13
18 17 16 15 14 14 13 13 13 12 12 12 11 11 11 11 11 11 12 12 12 12 12 12 11 12 12 12 12 12 12 12 12 12 12 12 12 12 12 12 13 13 13
17 17 16 15 14 14 13 13 12 12 12 12 12 11 11 11 11 11 11 12 12 12 11 11 11 11 11 11 11 11 11 11 11 11 11 11 11 11 11 12 12 13 13
18 17 16 15 14 13 13 13 12 12 12 12 12 11 11 11 11 11 11 12 11 11 11 11 11 11 11 11 11 11 11 11 11 11 11 11 11 12 12 12 12 12 13
18 17 16 15 14 13 13 13 13 12 12 12 12 12 11 11 11 11 11 11 11 11 11 11 11 11 12 12 11 11 11 11 11 11 11 11 11 11 12 12 12 12 12
18 17 16 15 14 13 13 13 13 12 12 12 12 12 12 11 11 11 11 11 11 11 11 11 11 11 12 12 11 11 11 11 11 11 11 12 11 11 11 11 11 11 12
17 17 16 15 14 13 13 12 12 13 12 12 12 12 12 12 11 11 11 12 11 11 11 11 11 12 12 11 11 11 11 11 11 10 10 10 11 11 11 11 11 11 11
17 16 15 15 14 13 13 12 12 12 13 12 12 12 12 12 11 11 11 12 12 11 11 11 11 12 11 11 11 11 11 10 10 10 10 10 10 11 11 10 11 11 11
17 16 15 14 14 13 13 12 12 12 12 12 12 12 12 12 12 11 11 11 11 11 11 11 11 11 11 11 11 11 11 10 10 10 10 10 10 10 10 10 10 10 10
16 16 15 14 13 13 12 12 12 12 12 12 11 11 12 12 11 11 11 11 11 11 11 11 11 11 11 11 11 11 11 11 11 11 11 10 10 10 10 9 9 10 10
16 16 15 14 13 12 12 12 12 12 12 11 11 11 11 12 11 11 11 11 11 11 10 10 10 10 10 10 10 10 10 10 10 10 10 9 9 9 9 9 9 9 10
15 15 15 14 12 12 11 12 12 11 11 11 11 11 11 11 11 11 11 11 10 11 10 10 10 10 10 10 10 10 10 10 9 9 9 9 9 9 8 8 9 9 10
15 15 15 14 13 12 11 11 11 11 11 11 11 11 11 11 10 11 11 11 10 11 11 10 10 10 10 10 9 9 9 9 9 9 9 9 9 9 8 9 9 9 8
15 15 15 15 14 12 12 11 11 11 11 11 11 11 11 11 11 11 11 10 11 11 11 10 10 10 10 10 9 9 9 9 9 9 9 10 10 10 9 9 9 8 8
15 14 14 14 14 12 12 11 11 11 11 11 11 11 11 11 11 10 10 10 10 10 10 10 10 10 10 9 9 9 9 9 9 9 10 10 10 10 10 10 9 8 7
Wind_Speed
4 3 3 4 6 7 8 8 8 7 7 6 8 8 8 8 8 8 9 10 10 13 12 14 14 12 11 10 9 8 10 10 9 11 12 13 14 15 13 13 13 15 15
3 4 4 5 7 8 8 9 9 8 8 7 7 6 6 7 8 9 11 13 13 13 12 13 12 11 10 10 9 8 9 10 8 9 10 11 11 10 11 11 11 13 13
1 1 2 4 7 8 10 10 10 10 9 9 7 6 7 7 9 11 12 14 13 12 9 8 7 7 8 8 8 8 9 9 8 7 6 7 9 8 7 8 10 11 10
3 4 6 7 8 9 9 10 10 10 9 10 10 11 10 11 11 11 12 10 9 9 9 8 6 6 7 7 8 7 6 7 7 6 6 8 7 6 8 9 9 9 9
4 6 9 10 12 12 12 12 12 12 11 11 11 12 13 13 12 12 12 9 6 6 7 8 8 6 6 6 7 6 6 5 6 5 5 7 7 9 8 10 10 8 8
5 8 10 11 12 14 14 14 14 14 13 13 13 13 16 16 15 14 11 8 6 6 8 8 8 7 6 7 8 7 6 5 5 5 5 6 6 6 7 9 9 8 7
8 10 12 12 13 15 15 15 16 16 15 14 14 15 17 18 17 14 11 9 7 7 9 9 9 8 8 7 7 7 6 5 5 5 5 4 5 5 6 7 7 6 5
11 11 12 11 12 14 15 15 16 18 17 15 14 14 15 12 9 9 7 7 6 7 9 10 9 9 9 8 6 5 4 4 4 4 3 2 2 3 3 3 5 6 4
11 11 11 11 11 12 12 13 15 16 16 14 10 8 5 4 4 5 5 5 5 6 7 7 8 8 7 6 5 4 4 4 2 1 2 3 3 4 3 3 4 5 6
10 10 10 10 9 8 7 9 12 12 11 8 3 2 3 2 2 4 5 5 6 6 8 8 8 7 5 4 4 5 3 2 2 2 3 3 3 4 4 4 4 5 6
9 9 9 9 6 4 3 6 10 12 11 10 9 9 7 6 3 2 3 4 4 5 7 8 7 6 5 4 3 3 3 3 4 3 4 4 6 5 5 5 5 4 6
8 8 9 7 5 4 2 3 6 9 10 11 11 8 6 6 3 2 1 2 4 4 5 6 6 6 6 4 4 5 5 6 6 5 5 5 5 6 6 6 6 5 5
8 8 7 6 5 4 4 2 1 4 5 8 8 5 1 3 2 1 1 2 3 4 5 5 6 6 6 6 6 7 7 7 7 7 7 6 5 6 6 7 7 7 6
8 8 7 6 6 5 5 4 1 1 3 6 9 8 5 2 1 3 4 4 5 6 7 7 8 8 8 8 9 9 9 9 8 8 7 6 7 7 7 6 7 8 7
10 9 7 7 6 6 5 4 2 2 3 7 12 12 9 7 5 4 5 6 7 8 8 9 10 10 9 9 9 10 10 10 10 9 9 9 8 8 7 7 9 9 8
10 9 8 8 8 8 6 4 3 2 3 7 12 13 11 10 7 6 7 8 8 8 8 10 11 10 10 10 10 8 10 10 10 10 9 9 8 6 6 7 8 10 10
10 10 9 9 9 8 7 6 3 2 2 5 10 12 12 10 8 6 8 8 8 8 10 11 11 11 10 10 10 8 9 10 9 9 8 9 10 9 8 4 4 6 6
10 10 10 10 10 9 8 7 6 3 2 4 8 11 13 12 8 6 7 7 7 7 8 10 11 10 9 9 8 4 8 9 8 8 8 8 10 10 10 8 8 8 8
9 10 10 11 11 10 9 8 8 6 4 4 6 9 13 15 13 10 9 7 6 6 6 8 10 10 8 6 4 2 7 7 7 7 7 7 9 12 15 7 7 7 7
9 9 10 11 11 11 10 10 10 9 8 6 6 7 10 13 14 14 13 10 8 6 6 7 8 9 8 5 2 6 5 6 6 6 6 11 10 12 15 9 9 8 8
11 11 11 12 12 12 11 11 10 10 9 9 9 8 8 10 12 13 12 12 10 8 7 7 7 8 8 7 2 5 2 4 4 4 4 6 9 11 12 10 8 8 9
12 13 13 13 13 12 12 11 11 10 10 10 10 9 9 9 11 12 12 12 11 10 9 8 8 8 8 7 6 6 6 4 4 2 3 6 6 6 8 7 9 12 11
14 14 14 14 14 14 13 12 11 11 11 12 11 10 10 8 9 10 11 11 11 11 11 10 7 7 7 7 7 7 6 5 2 4 6 4 1 5 4 2 7 8 7
16 15 16 15 15 15 14 13 12 12 13 12 11 10 10 9 8 7 9 10 11 12 12 11 10 9 9 9 8 7 6 5 5 5 6 6 3 3 2 2 1 6 7
14 16 17 17 17 16 15 14 13 13 13 12 11 11 11 10 9 8 5 7 8 8 9 9 8 9 9 7 5 1 3 2 2 2 5 5 4 3 4 4 5 6 7
13 16 18 18 18 17 16 15 14 14 13 12 12 11 11 10 10 9 7 7 5 10 9 6 4 5 10 14 10 9 7 4 2 4 4 3 2 2 3 4 5 6 8
Wind_Direction
169 182 195 212 217 214 215 215 220 208 206 211 220 227 230 232 236 236 237 248 261 271 271 267 265 260 259 257 256 260 264 264 272 280 282 277 269 263 261 260 265 264 260
205 220 249 263 268 265 262 261 254 252 243 230 218 217 217 225 234 246 248 247 249 253 255 252 253 256 253 248 248 252 273 280 278 282 290 289 281 258 252 252 253 259 263
85 316 302 299 294 289 285 283 281 272 265 258 250 238 227 227 227 238 245 245 245 249 237 224 225 237 246 247 251 258 262 274 272 263 267 285 293 315 277 261 259 261 263
47 13 351 340 327 317 306 297 289 279 269 260 256 253 249 249 246 242 241 238 233 228 210 195 194 220 245 249 250 249 256 259 267 261 251 256 271 275 285 274 259 249 254
358 345 338 331 327 324 319 312 305 300 294 282 271 266 263 261 256 244 236 220 201 200 195 178 177 193 226 240 242 232 243 250 266 270 267 266 264 255 258 276 282 279 265
325 327 325 323 320 318 314 310 306 300 293 282 270 259 256 253 246 232 218 202 192 191 193 183 178 189 207 217 225 231 232 248 266 273 267 262 261 262 258 269 282 285 274
309 316 320 319 315 312 310 306 300 293 285 272 258 248 245 243 236 225 214 204 198 196 195 191 186 188 195 211 221 223 235 237 254 267 275 275 276 279 284 285 291 287 285
297 304 311 309 307 309 311 310 303 295 286 274 261 251 248 244 232 219 209 205 202 186 179 188 185 182 186 199 204 208 212 226 243 262 299 300 308 317 330 315 313 309 302
301 299 301 299 304 312 322 327 319 305 294 282 273 259 246 221 191 175 186 186 167 155 161 166 167 166 172 179 187 190 205 220 247 294 309 311 323 319 321 312 319 320 318
301 299 297 298 307 319 338 355 354 340 327 308 299 44 55 75 123 164 159 146 149 156 156 153 147 143 147 161 189 178 161 137 70 31 8 351 340 330 326 322 313 303 300
304 303 297 296 292 299 351 19 22 20 23 40 54 46 29 13 15 50 103 124 144 152 145 137 135 136 139 142 157 141 126 102 77 55 41 33 23 10 359 353 339 319 305
291 295 297 287 269 273 301 9 36 44 51 62 71 61 15 346 356 48 84 164 169 164 143 137 133 134 130 130 134 121 97 84 75 65 58 50 50 35 16 352 346 334 319
277 291 288 266 258 268 275 291 52 77 89 101 104 109 55 330 356 78 110 101 109 111 113 117 121 121 120 118 106 92 82 78 75 73 73 62 45 27 18 358 355 347 352
270 281 275 253 252 259 271 268 251 172 159 156 149 159 174 186 95 71 80 92 107 113 112 113 113 113 109 103 95 89 85 85 83 80 75 61 42 22 2 9 14 11 16
267 269 264 255 250 251 258 266 271 253 212 181 169 173 177 174 155 133 126 127 125 119 117 119 116 113 108 98 96 98 92 90 90 83 73 63 51 30 6 14 16 16 17
267 263 254 250 248 248 251 257 277 292 232 185 174 176 175 165 154 146 139 133 125 122 125 121 112 104 94 74 66 84 94 89 87 86 87 88 64 75 63 37 27 20 22
267 256 248 241 241 242 244 247 253 268 221 173 173 172 163 152 146 148 139 131 126 128 130 123 111 101 97 91 76 58 93 90 82 76 67 66 57 32 50 84 151 71 43
265 252 243 232 228 233 236 235 244 240 204 159 161 163 155 149 145 143 132 122 119 127 133 127 117 114 116 109 102 90 101 96 91 83 77 69 54 28 4 37 45 44 41
255 247 239 230 224 227 228 228 236 238 223 180 160 161 162 160 161 161 153 141 132 130 133 124 125 127 134 142 150 216 124 116 103 84 61 55 55 16 348 16 28 26 21
230 226 224 222 218 220 222 227 234 234 226 201 178 167 163 166 167 161 159 160 156 143 134 124 131 135 142 154 202 274 159 137 137 124 110 71 42 16 360 11 20 15 0
218 207 210 210 211 210 214 228 239 235 222 196 180 172 159 157 158 158 163 168 168 155 143 132 128 126 130 148 176 308 167 143 144 128 111 75 39 21 5 359 21 349 314
223 204 201 205 204 203 210 226 232 227 210 189 183 174 166 165 158 163 168 171 167 161 159 153 145 133 126 114 114 78 59 35 120 104 79 76 46 30 17 19 350 317 318
227 208 201 200 200 201 210 219 214 206 200 191 187 180 172 167 163 168 169 170 173 175 169 160 154 149 134 119 110 100 82 34 87 87 66 53 278 230 155 68 313 331 13
227 210 201 199 199 199 205 213 207 197 200 198 189 182 175 171 169 177 179 179 181 182 175 168 167 162 159 156 157 156 157 170 175 154 152 185 229 186 124 183 13 45 32
234 214 204 201 198 196 201 207 205 199 202 199 191 188 186 182 179 184 169 192 190 185 177 169 170 172 170 132 73 181 159 145 85 203 192 185 165 136 89 67 42 25 20
240 221 212 204 197 193 198 199 197 198 204 203 199 198 196 185 187 175 159 66 83 115 121 131 156 122 118 124 114 98 89 72 337 260 177 153 128 77 51 32 36 39 27
Height
1510 1510 1511 1512 1513 1513 1514 1514 1514 1514 1513 1513 1512 1512 1512 1514 1516 1517 1517 1518 1518 1519 1521 1522 1524 1523 1522 1520 1519 1519 1519 1519 1519 1516 1514 1512 1511 1509 1508 1507 1507 1507 1507
1509 1510 1510 1510 1511 1511 1510 1510 1509 1509 1508 1507 1505 1503 1503 1504 1506 1508 1509 1510 1509 1509 1510 1511 1513 1515 1515 1514 1514 1513 1514 1515 1514 1512 1509 1506 1505 1502 1501 1501 1500 1499 1499
1509 1509 1509 1508 1508 1507 1507 1506 1504 1503 1501 1499 1498 1495 1494 1492 1493 1496 1498 1499 1498 1498 1498 1499 1501 1504 1507 1508 1509 1508 1508 1509 1508 1506 1505 1502 1498 1497 1497 1496 1494 1493 1492
1508 1508 1508 1507 1506 1505 1503 1501 1499 1497 1495 1493 1490 1488 1486 1484 1484 1486 1489 1490 1488 1487 1486 1486 1489 1495 1499 1501 1503 1504 1503 1502 1502 1501 1498 1497 1495 1495 1492 1491 1490 1488 1486
1507 1507 1506 1504 1502 1501 1498 1495 1492 1489 1487 1485 1482 1480 1478 1478 1479 1481 1482 1481 1480 1480 1479 1478 1481 1486 1491 1495 1497 1498 1498 1497 1497 1495 1494 1492 1491 1490 1489 1486 1485 1483 1482
1506 1505 1504 1502 1499 1497 1494 1490 1487 1483 1479 1477 1475 1474 1474 1474 1476 1476 1475 1474 1474 1475 1476 1476 1478 1481 1486 1490 1492 1493 1493 1493 1492 1491 1490 1488 1487 1486 1485 1483 1481 1478 1478
1504 1503 1501 1499 1496 1493 1490 1486 1482 1478 1475 1472 1470 1469 1469 1469 1470 1470 1470 1470 1470 1471 1473 1474 1476 1479 1483 1486 1488 1489 1489 1489 1489 1488 1487 1485 1484 1483 1482 1481 1478 1476 1475
1500 1500 1498 1495 1493 1490 1487 1483 1478 1473 1470 1468 1466 1464 1464 1463 1463 1464 1465 1466 1467 1468 1470 1473 1475 1477 1480 1483 1484 1485 1485 1486 1486 1485 1484 1483 1482 1481 1480 1479 1478 1475 1474
1496 1496 1494 1492 1489 1486 1483 1478 1473 1468 1464 1462 1461 1461 1460 1459 1458 1460 1462 1464 1465 1467 1468 1471 1473 1475 1478 1479 1480 1481 1482 1483 1483 1482 1481 1482 1481 1481 1480 1479 1477 1476 1474
1492 1491 1490 1488 1485 1482 1479 1475 1469 1463 1459 1458 1458 1459 1459 1458 1459 1460 1462 1464 1465 1467 1468 1471 1473 1474 1476 1477 1478 1480 1480 1480 1480 1480 1480 1481 1480 1480 1480 1479 1477 1476 1475
1487 1487 1486 1484 1482 1480 1477 1473 1468 1463 1458 1456 1458 1459 1460 1461 1462 1463 1465 1466 1467 1469 1470 1471 1473 1474 1475 1476 1477 1479 1478 1479 1479 1479 1480 1480 1480 1480 1481 1479 1478 1476 1474
1484 1482 1481 1480 1479 1478 1476 1472 1468 1464 1460 1459 1459 1461 1463 1465 1466 1466 1467 1468 1469 1470 1471 1472 1473 1474 1475 1476 1478 1478 1478 1478 1478 1479 1480 1480 1481 1480 1480 1480 1479 1476 1472
1479 1478 1477 1477 1476 1475 1474 1471 1468 1465 1462 1460 1462 1464 1466 1468 1469 1469 1469 1470 1470 1471 1472 1473 1473 1474 1475 1477 1478 1478 1478 1478 1479 1480 1481 1482 1482 1482 1482 1481 1479 1475 1472
1475 1473 1473 1473 1472 1472 1472 1470 1468 1466 1464 1462 1462 1464 1466 1467 1469 1470 1471 1471 1472 1472 1473 1474 1474 1475 1477 1478 1479 1479 1479 1480 1481 1481 1483 1484 1484 1483 1483 1482 1478 1475 1472
1471 1470 1469 1469 1469 1469 1469 1469 1467 1465 1463 1463 1462 1464 1465 1467 1469 1470 1471 1472 1474 1474 1475 1476 1476 1477 1479 1481 1482 1482 1483 1483 1484 1484 1485 1484 1484 1484 1483 1481 1479 1476 1474
1468 1467 1466 1466 1466 1466 1466 1466 1465 1464 1462 1462 1462 1463 1465 1468 1470 1471 1473 1474 1475 1477 1478 1479 1479 1480 1480 1482 1483 1485 1486 1486 1487 1488 1488 1487 1487 1486 1484 1482 1480 1478 1476
1463 1463 1463 1463 1463 1463 1463 1464 1463 1462 1461 1461 1461 1462 1464 1467 1470 1472 1474 1476 1477 1478 1480 1481 1481 1481 1482 1484 1486 1488 1489 1490 1490 1491 1491 1490 1489 1488 1488 1486 1483 1481 1478
1459 1459 1460 1460 1460 1460 1461 1461 1461 1461 1460 1460 1460 1461 1463 1466 1469 1471 1474 1476 1478 1480 1481 1482 1483 1484 1485 1487 1489 1490 1491 1492 1492 1493 1492 1491 1490 1489 1489 1488 1486 1483 1480
1455 1455 1455 1456 1457 1457 1458 1458 1459 1459 1459 1459 1459 1460 1462 1464 1467 1469 1472 1475 1478 1480 1482 1483 1484 1485 1487 1488 1490 1491 1493 1494 1494 1494 1493 1493 1491 1490 1489 1488 1486 1484 1482
1450 1449 1450 1451 1452 1453 1454 1455 1456 1456 1457 1457 1458 1459 1460 1462 1464 1467 1470 1474 1477 1479 1481 1483 1484 1486 1487 1489 1490 1491 1494 1494 1495 1494 1493 1492 1491 1490 1488 1487 1485 1483 1481
1445 1444 1444 1445 1447 1449 1450 1451 1452 1453 1454 1454 1455 1457 1458 1460 1462 1465 1468 1471 1474 1477 1480 1482 1484 1486 1487 1488 1490 1491 1493 1494 1494 1494 1494 1492 1491 1489 1488 1486 1485 1483 1481
1440 1439 1439 1440 1441 1443 1445 1447 1448 1449 1450 1451 1453 1455 1456 1459 1460 1463 1465 1468 1471 1474 1477 1481 1483 1485 1487 1488 1489 1490 1491 1492 1493 1493 1493 1491 1489 1488 1488 1487 1486 1484 1483
1433 1433 1433 1434 1436 1438 1440 1442 1444 1445 1447 1449 1450 1452 1454 1456 1458 1460 1463 1466 1468 1472 1476 1479 1481 1484 1485 1486 1487 1488 1489 1490 1491 1491 1490 1490 1489 1488 1489 1488 1486 1485 1484
1426 1426 1427 1428 1429 1432 1435 1438 1440 1442 1444 1446 1447 1449 1451 1454 1456 1459 1461 1464 1467 1470 1473 1476 1479 1481 1483 1485 1486 1487 1488 1489 1490 1490 1489 1489 1489 1489 1489 1488 1487 1486 1484
1421 1419 1419 1420 1423 1425 1429 1433 1436 1438 1441 1443 1445 1447 1449 1452 1454 1457 1459 1461 1464 1467 1470 1473 1476 1479 1482 1484 1485 1487 1489 1489 1489 1489 1490 1490 1490 1490 1489 1488 1487 1486 1484
1414 1413 1413 1413 1416 1419 1423 1427 1430 1434 1437 1439 1441 1444 1447 1449 1451 1454 1456 1458 1461 1464 1468 1471 1474 1477 1480 1481 1483 1484 1485 1486 1486 1488 1489 1489 1490 1489 1489 1488 1487 1486 1484